This is the latest recevied weather packets stored in our database for station/object KE5KUL-13. If no packets are shown the sender has not sent any weather packets the latest 10 day(s).
| Time | Temp. | Humidity | Pressure | Rain* | Wind** | Luminosity | Snow |
|---|---|---|---|---|---|---|---|
| 1777625417 | 11.67° C | 46% | 1020.6 hPa | 0 mm | - | - | - |
| 1777624817 | 11.67° C | 46% | 1020.8 hPa | 0 mm | - | - | - |
| 1777624217 | 11.67° C | 46% | 1020.8 hPa | 0 mm | - | - | - |
| 1777623617 | 11.67° C | 46% | 1020.8 hPa | 0 mm | - | - | - |
| 1777623017 | 11.67° C | 47% | 1020.9 hPa | 0 mm | - | - | - |
| 1777622417 | 12.22° C | 50% | 1020.5 hPa | 0 mm | - | - | - |
| 1777621817 | 12.22° C | 55% | 1020.9 hPa | 0 mm | - | - | - |
| 1777621217 | 12.22° C | 59% | 1021 hPa | 0 mm | - | - | - |
| 1777620617 | 12.22° C | 60% | 1021.3 hPa | 0 mm | - | - | - |
| 1777620017 | 12.22° C | 61% | 1021 hPa | 0 mm | - | - | - |
| 1777619417 | 12.22° C | 62% | 1020.8 hPa | 0 mm | - | - | - |
| 1777618817 | 12.22° C | 63% | 1021.1 hPa | 0 mm | - | - | - |
| 1777618217 | 12.22° C | 65% | 1021 hPa | 0 mm | - | - | - |
| 1777617617 | 12.22° C | 66% | 1020.9 hPa | 0 mm | - | - | - |
| 1777617017 | 12.22° C | 66% | 1021 hPa | 0 mm | - | - | - |
| 1777616419 | 12.22° C | 67% | 1020.9 hPa | 0 mm | - | - | - |
| 1777615817 | 12.22° C | 66% | 1021 hPa | 0 mm | - | - | - |
| 1777615219 | 12.78° C | 66% | 1020.9 hPa | 0 mm | - | - | - |
| 1777614617 | 12.78° C | 66% | 1020.8 hPa | 0 mm | - | - | - |
| 1777614017 | 12.78° C | 66% | 1020.5 hPa | 0 mm | - | - | - |
| 1777613417 | 12.78° C | 67% | 1020.3 hPa | 0 mm | - | - | - |
| 1777612819 | 12.78° C | 67% | 1020.2 hPa | 0 mm | - | - | - |
| 1777612219 | 12.78° C | 68% | 1020.5 hPa | 0 mm | - | - | - |
| 1777611617 | 12.78° C | 68% | 1020.5 hPa | 0 mm | - | - | - |
| 1777611018 | 12.78° C | 68% | 1020.5 hPa | 0 mm | - | - | - |
* Rain latest hour (hover to see other rain measurements)
** Current wind speed in m/s (hover to see current wind gust speed)